{"data":{"norad_id":61632,"epoch":"2026-05-25T04:42:08.172288Z","epoch_age_seconds":57524,"freshness":"FRESH","line1":"1 61632U 24191M   26145.19592792  .00000420  00000+0  24760-4 0  9995","line2":"2 61632  43.0020  86.1959 0000724 263.9701  96.1068 15.27578762 89195","mean_motion":15.27578762,"eccentricity":7.24e-5,"inclination_deg":43.002,"raan_deg":86.1959,"arg_perigee_deg":263.9701,"mean_anomaly_deg":96.1068,"bstar":2.476e-5,"rev_number":8919,"period_min":94.266825110521,"perigee_km":482.55605291778,"apogee_km":483.54955320127,"semimajor_km":6861.1898030595,"source":"CELESTRAK","updated_at":"2026-05-25T13:38:19.408699Z"}}